Location: Bay Harbour
(38.2612°N, 75.2555°W)
Time: 00:14:30
(UTC+00:00)

NOAA 11 - Pass Details

Date: 29 October 2020
Orbit: 833 x 849 km, 98.4° (Epoch: 02 December)

Event Time Altitude Azimuth Distance (km) Brightness Sun altitude
Rises 22:22:03 0° 148° (SSE) 3,382 7.2 -4.2°
Reaches altitude 10° 22:24:29 10° 142° (SE) 2,449 6.4 -4.6°
Maximum altitude 22:29:37 45° 71° (ENE) 1,127 4.5 -5.6°
Drops below altitude 10° 22:34:46 10° 0° (N) 2,454 6.5 -6.6°
Sets 22:37:13 0° 355° (N) 3,391 7.3 -7.1°
